Weather History for Kinston, NC

Change the Weather History Date:

Monday, December 16, 2013

  Actual Average Record
Temperature  
Mean Temperature 42 °F -  
Max Temperature 55 °F 54 °F 78 °F (1971)
Min Temperature 30 °F 36 °F 19 °F (2004)
Degree Days  
Heating Degree Days 22    
Moisture  
Dew Point 32 °F    
Average Humidity 79    
Maximum Humidity 97    
Minimum Humidity 41    
Precipitation  
Precipitation 0.00 in - - ()
Sea Level Pressure  
Sea Level Pressure 30.15 in    
Wind  
Wind Speed 1 mph (WSW)    
Max Wind Speed 8 mph    
Max Gust Speed -    
Visibility 10 miles    
Events      
Averages and records for this station are not official NWS values.
T = Trace of Precipitation, MM = Missing Value Source: NWS Daily Summary

Daily Weather History Graph

Daily Weather History Graph

Search for Another Location

Airport:

Trip Planner

Search our weather history database for the weather conditions in past years. The results will help you decide how hot, cold, wet, or windy it might be!

Date:

Astronomy

Dec. 16, 2013 Rise Set
Actual Time 7:12 AM EST 4:59 PM EST
Civil Twilight 6:44 AM EST 5:28 PM EST
Nautical Twilight 6:12 AM EST 5:59 PM EST
Astronomical Twilight 5:41 AM EST 6:30 PM EST
Moon 4:46 PM EST (12/16) 6:21 AM EST (12/16)
Length of Visible Light 10h 43m
Length of Day
9h 47m
Full, 100% of the Moon is Illuminated
Dec 16
Full
Dec 17
Full
Dec 25
Last Quarter
Jan 1
New
Jan 7
First Quarter

Hourly Weather History & Observations

Time (EST) Temp. Windchill Dew Point Humidity Pressure Visibility Wind Dir Wind Speed Gust Speed Precip Events Conditions
12:15 AM 38.5 °F - 32.0 °F 78% 30.08 in 10.0 mi Calm Calm - N/A   Clear
12:35 AM 36.7 °F - 32.0 °F 83% 30.09 in 10.0 mi Calm Calm - N/A   Clear
12:55 AM 37.0 °F - 32.0 °F 82% 30.09 in 10.0 mi Calm Calm - N/A   Clear
1:15 AM 37.6 °F - 31.1 °F 77% 30.09 in 10.0 mi Calm Calm - N/A   Clear
1:35 AM 37.2 °F - 30.6 °F 77% 30.09 in 10.0 mi Calm Calm - N/A   Clear
1:55 AM 36.9 °F - 30.2 °F 77% 30.09 in 10.0 mi Calm Calm - N/A   Clear
2:15 AM 36.7 °F - 30.0 °F 77% 30.10 in 10.0 mi Calm Calm - N/A   Clear
2:35 AM 36.5 °F - 29.8 °F 77% 30.10 in 10.0 mi Calm Calm - N/A   Clear
2:55 AM 35.8 °F - 29.8 °F 79% 30.10 in 10.0 mi Calm Calm - N/A   Clear
3:15 AM 33.1 °F - 29.7 °F 87% 30.10 in 10.0 mi Calm Calm - N/A   Clear
3:35 AM 32.4 °F - 30.4 °F 92% 30.10 in 10.0 mi Calm Calm - N/A   Clear
3:55 AM 32.0 °F - 30.2 °F 93% 30.10 in 10.0 mi Calm Calm - N/A   Clear
4:15 AM 33.8 °F - 29.5 °F 84% 30.11 in 10.0 mi Calm Calm - N/A   Clear
5:15 AM 34.2 °F - 29.3 °F 82% 30.13 in 10.0 mi Calm Calm - N/A   Clear
5:35 AM 32.7 °F - 28.9 °F 86% 30.13 in 10.0 mi Calm Calm - N/A   Clear
5:55 AM 32.0 °F - 28.9 °F 88% 30.14 in 10.0 mi Calm Calm - N/A   Clear
6:56 AM 30.2 °F - 28.4 °F 93% - 10.0 mi Calm Calm - N/A   Clear
7:56 AM 32.0 °F - 30.2 °F 93% 30.17 in 10.0 mi Calm Calm - N/A   Clear
8:56 AM 41.0 °F 39.0 °F 32.0 °F 70% 30.19 in 10.0 mi WNW 3.5 mph - N/A   Clear
9:56 AM 46.4 °F 43.5 °F 32.0 °F 57% 30.21 in 10.0 mi NW 5.8 mph - N/A   Clear
10:56 AM 50.0 °F - 30.2 °F 47% 30.20 in 10.0 mi West 6.9 mph - N/A   Clear
11:56 AM 51.8 °F - 32.0 °F 47% 30.17 in 10.0 mi West 5.8 mph - N/A   Clear
12:56 PM 53.6 °F - 32.0 °F 44% 30.15 in 10.0 mi West 5.8 mph - N/A   Clear
1:56 PM 55.4 °F - 32.0 °F 41% 30.13 in 10.0 mi SW 8.1 mph - N/A   Clear
2:56 PM 55.4 °F - 32.0 °F 41% 30.13 in 10.0 mi WSW 8.1 mph - N/A   Clear
3:56 PM 55.4 °F - 32.0 °F 41% 30.14 in 10.0 mi West 5.8 mph - N/A   Clear
4:56 PM 50.0 °F - 35.6 °F 58% 30.16 in 10.0 mi Calm Calm - N/A   Clear
5:56 PM 42.8 °F - 37.4 °F 81% 30.17 in 10.0 mi Calm Calm - N/A   Clear
6:56 PM 39.2 °F - 37.4 °F 93% 30.18 in 10.0 mi Calm Calm - N/A   Clear
7:56 PM 39.2 °F - 37.4 °F 93% 30.17 in 10.0 mi Calm Calm - N/A   Clear
8:15 PM 38.3 °F - 35.8 °F 91% 30.18 in 10.0 mi Calm Calm - N/A   Clear
8:35 PM 36.7 °F - 34.5 °F 92% 30.18 in 10.0 mi Calm Calm - N/A   Clear
8:55 PM 36.3 °F - 34.2 °F 92% 30.18 in 10.0 mi Calm Calm - N/A   Clear
8:56 PM 35.6 °F - 33.8 °F 93% 30.18 in 10.0 mi Calm Calm - N/A   Clear
9:15 PM 35.1 °F - 33.4 °F 94% 30.18 in 10.0 mi Calm Calm - N/A   Clear
9:35 PM - - - N/A% 30.18 in 10.0 mi Calm Calm - N/A   Clear
9:56 PM 35.6 °F - 33.8 °F 93% 30.18 in 10.0 mi Calm Calm - N/A   Clear
10:15 PM 34.5 °F - 33.4 °F 96% 30.18 in 10.0 mi Calm Calm - N/A   Clear
10:35 PM 35.6 °F 32.8 °F 34.7 °F 97% 30.18 in 10.0 mi South 3.5 mph - N/A   Clear
10:55 PM 36.0 °F - 34.7 °F 95% 30.17 in 10.0 mi Calm Calm - N/A   Clear
11:15 PM 36.5 °F 33.9 °F 34.7 °F 93% 30.17 in 10.0 mi South 3.5 mph - N/A   Clear
11:35 PM 38.1 °F 34.6 °F 35.8 °F 91% 30.17 in 10.0 mi South 4.6 mph - N/A   Clear
11:55 PM 39.6 °F 36.3 °F 36.1 °F 88% 30.17 in 10.0 mi South 4.6 mph - N/A   Clear